| time (UTC) | temp F | wind direction | speed knots | gust knots | rain 1hr in | rain 24hr in | rain mn in | humidity % | barometer mb |
| 20260903214529 | 70 | 275 | 0.0 | 0.0 | 0.00 | 0.14 | 0.00 | 45 | 1008.4 |
| 20260903214028 | 70 | 273 | 0.0 | 0.0 | 0.00 | 0.14 | 0.00 | 48 | 1008.3 |
| 20260903213527 | 69 | 268 | 0.0 | 0.0 | 0.00 | 0.14 | 0.00 | 46 | 1008.4 |
| 20260903213028 | 69 | 321 | 0.0 | 0.0 | 0.00 | 0.14 | 0.00 | 46 | 1008.3 |
| 20260903212524 | 69 | 319 | 0.0 | 0.0 | 0.00 | 0.14 | 0.00 | 47 | 1008.4 |
| 20260903212026 | 69 | 355 | 0.0 | 0.0 | 0.00 | 0.14 | 0.00 | 48 | 1008.4 |
| 20260903211522 | 69 | 290 | 0.0 | 0.0 | 0.00 | 0.14 | 0.00 | 48 | 1008.4 |
| 20260903211020 | 69 | 324 | 0.0 | 0.0 | 0.00 | 0.14 | 0.00 | 48 | 1008.4 |
| 20260903210521 | 69 | 13 | 0.0 | 0.0 | 0.00 | 0.14 | 0.00 | 48 | 1008.5 |
| 20260903210017 | 68 | 11 | 0.0 | 0.0 | 0.00 | 0.17 | 0.00 | 51 | 1008.7 |
| 20260903205517 | 68 | 61 | 0.0 | 0.0 | 0.00 | 0.17 | 0.00 | 53 | 1008.8 |
| 20260903205014 | 68 | 355 | 0.0 | 0.0 | 0.00 | 0.17 | 0.00 | 53 | 1008.8 |
| 20260903204512 | 67 | 342 | 0.0 | 0.0 | 0.00 | 0.17 | 0.00 | 57 | 1008.7 |
| 20260903204011 | 66 | 310 | 0.0 | 0.0 | 0.00 | 0.17 | 0.00 | 55 | 1008.8 |
| 20260903203512 | 66 | 347 | 0.0 | 0.0 | 0.00 | 0.17 | 0.00 | 55 | 1008.8 |
| 20260903203015 | 66 | 355 | 0.0 | 0.0 | 0.00 | 0.17 | 0.00 | 58 | 1008.8 |
| 20260903202507 | 66 | 355 | 0.0 | 0.0 | 0.00 | 0.17 | 0.00 | 56 | 1008.9 |
| 20260903202006 | 65 | 355 | 0.0 | 0.0 | 0.00 | 0.17 | 0.00 | 59 | 1008.9 |
| 20260903201503 | 65 | 355 | 0.0 | 0.0 | 0.00 | 0.17 | 0.00 | 60 | 1009.0 |
| 20260903201002 | 65 | 355 | 0.0 | 0.0 | 0.00 | 0.17 | 0.00 | 61 | 1009.0 |
| 20260903200501 | 64 | 294 | 0.0 | 0.0 | 0.00 | 0.17 | 0.00 | 61 | 1009.0 |
| 20260903200108 | 64 | 294 | 0.0 | 0.0 | 0.00 | 0.17 | 0.00 | 61 | 1009.2 |
| 20260903195558 | 64 | 292 | 0.0 | 0.0 | 0.00 | 0.21 | 0.00 | 62 | 1009.2 |
| 20260903195059 | 63 | 292 | 0.0 | 0.0 | 0.00 | 0.21 | 0.00 | 65 | 1009.4 |
| 20260903194556 | 63 | 292 | 0.0 | 0.0 | 0.00 | 0.21 | 0.00 | 67 | 1009.6 |
| 20260903194053 | 62 | 345 | 0.0 | 0.0 | 0.00 | 0.21 | 0.00 | 66 | 1009.5 |
| 20260903193552 | 62 | 319 | 0.0 | 0.0 | 0.00 | 0.21 | 0.00 | 64 | 1009.6 |
| 20260903193055 | 61 | 319 | 0.0 | 0.0 | 0.00 | 0.21 | 0.00 | 62 | 1009.7 |
| 20260903192550 | 61 | 314 | 0.0 | 0.0 | 0.00 | 0.21 | 0.00 | 61 | 1009.7 |
| 20260903192048 | 61 | 312 | 0.0 | 0.0 | 0.00 | 0.21 | 0.00 | 53 | 1009.8 |
| 20260903191558 | 61 | 316 | 0.0 | 0.0 | 0.00 | 0.21 | 0.00 | 57 | 1009.9 |
| 20260903191045 | 60 | 331 | 0.0 | 0.0 | 0.00 | 0.21 | 0.00 | 61 | 1009.9 |
| 20260903190544 | 60 | 331 | 0.0 | 0.0 | 0.00 | 0.21 | 0.00 | 61 | 1009.9 |
| 20260903190041 | 61 | 331 | 0.0 | 0.0 | 0.00 | 0.21 | 0.00 | 55 | 1010.0 |
| 20260903185539 | 60 | 331 | 0.0 | 0.0 | 0.00 | 0.21 | 0.00 | 56 | 1010.1 |
| 20260903185039 | 60 | 331 | 0.0 | 0.0 | 0.00 | 0.21 | 0.00 | 54 | 1010.1 |
| 20260903184540 | 60 | 331 | 0.0 | 0.0 | 0.00 | 0.21 | 0.00 | 44 | 1010.1 |
| 20260903184036 | 59 | 330 | 0.0 | 0.0 | 0.00 | 0.21 | 0.00 | 41 | 1010.1 |
| 20260903183538 | 59 | 330 | 0.0 | 0.0 | 0.00 | 0.21 | 0.00 | 22 | 1010.0 |
| 20260903183049 | 59 | 331 | 0.0 | 0.0 | 0.00 | 0.21 | 0.00 | 29 | 1010.1 |
| 20260903182531 | 58 | 247 | 0.0 | 0.0 | 0.00 | 0.21 | 0.00 | 13 | 1010.2 |
| 20260903182031 | 58 | 246 | 0.0 | 0.0 | 0.00 | 0.21 | 0.00 | 1 | 1010.0 |
| 20260903181529 | 57 | 224 | 0.0 | 0.0 | 0.00 | 0.21 | 0.00 | 1 | 1010.2 |
| 20260903181030 | 55 | 224 | 0.0 | 0.0 | 0.00 | 0.21 | 0.00 | 1 | 1010.1 |
| 20260903180526 | 55 | 224 | 0.0 | 0.0 | 0.00 | 0.21 | 0.00 | 1 | 1010.1 |
| 20260903180034 | 54 | 224 | 0.0 | 0.0 | 0.00 | 0.21 | 0.00 | 1 | 1010.2 |
| 20260903175522 | 54 | 224 | 0.0 | 0.0 | 0.00 | 0.21 | 0.00 | 1 | 1010.2 |
| 20260903175021 | 54 | 224 | 0.0 | 0.0 | 0.00 | 0.21 | 0.00 | 1 | 1010.2 |
| 20260903174524 | 53 | 224 | 0.0 | 0.0 | 0.00 | 0.21 | 0.00 | 1 | 1010.2 |
| 20260903174019 | 53 | 224 | 0.0 | 0.0 | 0.00 | 0.21 | 0.00 | 1 | 1010.3 |
| 20260903173516 | 53 | 224 | 0.0 | 0.0 | 0.00 | 0.21 | 0.00 | 1 | 1010.3 |
| 20260903173015 | 53 | 224 | 0.0 | 0.0 | 0.00 | 0.21 | 0.00 | 1 | 1010.3 |
| 20260903172515 | 53 | 224 | 0.0 | 0.0 | 0.00 | 0.21 | 0.00 | 1 | 1010.3 |
| 20260903172012 | 53 | 224 | 0.0 | 0.0 | 0.00 | 0.21 | 0.00 | 1 | 1010.3 |
| 20260903171518 | 52 | 221 | 0.0 | 0.0 | 0.00 | 0.21 | 0.00 | 1 | 1010.3 |
| 20260903171009 | 52 | 221 | 0.0 | 0.0 | 0.00 | 0.21 | 0.00 | 1 | 1010.3 |
| 20260903170513 | 52 | 221 | 0.0 | 0.0 | 0.00 | 0.21 | 0.00 | 1 | 1010.3 |
| 20260903170013 | 52 | 221 | 0.0 | 0.0 | 0.00 | 0.21 | 0.00 | 1 | 1010.4 |
| 20260903165504 | 52 | 221 | 0.0 | 0.0 | 0.00 | 0.21 | 0.00 | 1 | 1010.3 |
| 20260903165003 | 52 | 221 | 0.0 | 0.0 | 0.00 | 0.21 | 0.00 | 1 | 1010.3 |
| 20260903164502 | 52 | 221 | 0.0 | 0.0 | 0.00 | 0.21 | 0.00 | 1 | 1010.3 |
| 20260903164004 | 52 | 221 | 0.0 | 0.0 | 0.00 | 0.21 | 0.00 | 1 | 1010.3 |
| 20260903163600 | 52 | 221 | 0.0 | 0.0 | 0.00 | 0.21 | 0.00 | 1 | 1010.3 |
| 20260903163058 | 52 | 221 | 0.0 | 0.0 | 0.00 | 0.21 | 0.00 | 1 | 1010.3 |
| 20260903162556 | 52 | 220 | 0.0 | 0.0 | 0.00 | 0.21 | 0.00 | 1 | 1010.3 |
| 20260903162055 | 52 | 200 | 0.0 | 0.0 | 0.00 | 0.21 | 0.00 | 1 | 1010.3 |
| 20260903161612 | 52 | 360 | 0.0 | 0.0 | 0.00 | 0.21 | 0.00 | 1 | 1010.3 |
| 20260903161055 | 51 | 360 | 0.0 | 0.0 | 0.00 | 0.21 | 0.00 | 1 | 1010.1 |
| 20260903160551 | 51 | 360 | 0.0 | 0.0 | 0.00 | 0.21 | 0.00 | 1 | 1010.2 |
| 20260903160050 | 51 | 360 | 0.0 | 0.0 | 0.00 | 0.21 | 0.00 | 1 | 1010.3 |
| 20260903155548 | 51 | 360 | 0.0 | 0.0 | 0.00 | 0.21 | 0.00 | 1 | 1010.3 |
| 20260903155046 | 51 | 360 | 0.0 | 0.0 | 0.00 | 0.21 | 0.00 | 1 | 1010.3 |
| 20260903154545 | 51 | 360 | 0.0 | 0.0 | 0.00 | 0.21 | 0.00 | 1 | 1010.2 |
| 20260903154044 | 51 | 360 | 0.0 | 0.0 | 0.00 | 0.21 | 0.00 | 1 | 1010.3 |
| 20260903153542 | 51 | 360 | 0.0 | 0.0 | 0.00 | 0.21 | 0.00 | 1 | 1010.4 |
| 20260903153040 | 51 | 360 | 0.0 | 0.0 | 0.00 | 0.21 | 0.00 | 1 | 1010.5 |
| 20260903152539 | 51 | 360 | 0.0 | 0.0 | 0.00 | 0.21 | 0.00 | 1 | 1010.5 |
| 20260903152037 | 51 | 360 | 0.0 | 0.0 | 0.00 | 0.21 | 0.00 | 1 | 1010.3 |
| 20260903151541 | 51 | 360 | 0.0 | 0.0 | 0.00 | 0.21 | 0.00 | 1 | 1010.4 |
| 20260903151035 | 51 | 360 | 0.0 | 0.0 | 0.00 | 0.21 | 0.00 | 1 | 1010.3 |
| 20260903150534 | 50 | 360 | 0.0 | 0.0 | 0.00 | 0.21 | 0.00 | 1 | 1010.2 |
| 20260903150031 | 50 | 360 | 0.0 | 0.0 | 0.00 | 0.21 | 0.00 | 1 | 1010.3 |
| 20260903145530 | 50 | 360 | 0.0 | 0.0 | 0.00 | 0.21 | 0.00 | 1 | 1010.3 |
| 20260903145029 | 50 | 360 | 0.0 | 0.0 | 0.00 | 0.21 | 0.00 | 1 | 1010.2 |
| 20260903144528 | 50 | 360 | 0.0 | 0.0 | 0.00 | 0.21 | 0.00 | 1 | 1010.1 |
| 20260903144027 | 50 | 360 | 0.0 | 0.0 | 0.00 | 0.21 | 0.00 | 1 | 1010.1 |
| 20260903143524 | 50 | 360 | 0.0 | 0.0 | 0.00 | 0.21 | 0.00 | 1 | 1010.1 |
| 20260903143034 | 50 | 360 | 0.0 | 0.0 | 0.00 | 0.21 | 0.00 | 1 | 1010.3 |
| 20260903142522 | 50 | 360 | 0.0 | 0.0 | 0.00 | 0.21 | 0.00 | 1 | 1010.2 |
| 20260903142024 | 50 | 360 | 0.0 | 0.0 | 0.00 | 0.21 | 0.00 | 1 | 1010.2 |
| 20260903141519 | 50 | 360 | 0.0 | 0.0 | 0.00 | 0.21 | 0.00 | 1 | 1010.1 |
| 20260903141017 | 50 | 360 | 0.0 | 0.0 | 0.00 | 0.21 | 0.00 | 1 | 1010.1 |
| 20260903140516 | 50 | 360 | 0.0 | 0.0 | 0.00 | 0.21 | 0.00 | 1 | 1010.0 |
| 20260903140017 | 50 | 360 | 0.0 | 0.0 | 0.00 | 0.21 | 0.00 | 1 | 1010.0 |
| 20260903135512 | 50 | 360 | 0.0 | 0.0 | 0.00 | 0.21 | 0.00 | 1 | 1009.9 |
| 20260903135011 | 49 | 360 | 0.0 | 0.0 | 0.00 | 0.21 | 0.00 | 1 | 1009.9 |
| 20260903134510 | 49 | 360 | 0.0 | 0.0 | 0.00 | 0.21 | 0.00 | 1 | 1010.0 |
| 20260903134008 | 49 | 360 | 0.0 | 0.0 | 0.00 | 0.21 | 0.00 | 1 | 1009.8 |
| 20260903133507 | 49 | 360 | 0.0 | 0.0 | 0.00 | 0.21 | 0.00 | 1 | 1009.8 |
| 20260903133006 | 49 | 360 | 0.0 | 0.0 | 0.00 | 0.21 | 0.00 | 1 | 1009.8 |
| 20260903132504 | 49 | 360 | 0.0 | 0.0 | 0.00 | 0.21 | 0.00 | 1 | 1009.7 |
| 20260903132003 | 50 | 360 | 0.0 | 0.0 | 0.00 | 0.21 | 0.00 | 1 | 1009.7 |
| 20260903131503 | 50 | 360 | 0.0 | 0.0 | 0.00 | 0.21 | 0.00 | 1 | 1009.7 |
| 20260903131102 | 49 | 360 | 0.0 | 0.0 | 0.00 | 0.21 | 0.00 | 1 | 1009.7 |
| 20260903130559 | 49 | 360 | 0.0 | 0.0 | 0.00 | 0.21 | 0.00 | 1 | 1009.5 |
| 20260903125556 | 49 | 360 | 0.0 | 0.0 | 0.00 | 0.21 | 0.00 | 1 | 1009.6 |
| 20260903125054 | 49 | 360 | 0.0 | 0.0 | 0.00 | 0.21 | 0.00 | 1 | 1009.6 |
| 20260903124600 | 49 | 360 | 0.0 | 0.0 | 0.00 | 0.21 | 0.00 | 1 | 1009.6 |
| 20260903124050 | 49 | 360 | 0.0 | 0.0 | 0.00 | 0.21 | 0.00 | 1 | 1009.8 |
| 20260903123549 | 49 | 360 | 0.0 | 0.0 | 0.00 | 0.21 | 0.00 | 1 | 1009.7 |
| 20260903123048 | 49 | 360 | 0.0 | 0.0 | 0.00 | 0.21 | 0.00 | 1 | 1009.6 |
| 20260903122547 | 49 | 360 | 0.0 | 0.0 | 0.00 | 0.21 | 0.00 | 1 | 1009.8 |
| 20260903122046 | 49 | 360 | 0.0 | 0.0 | 0.00 | 0.21 | 0.00 | 1 | 1009.7 |
| 20260903121549 | 50 | 360 | 0.0 | 0.0 | 0.00 | 0.21 | 0.00 | 1 | 1009.6 |
| 20260903121042 | 50 | 360 | 0.0 | 0.0 | 0.00 | 0.21 | 0.00 | 1 | 1009.6 |
| 20260903120543 | 50 | 360 | 0.0 | 0.0 | 0.00 | 0.21 | 0.00 | 1 | 1009.7 |
| 20260903120039 | 50 | 360 | 0.0 | 0.0 | 0.00 | 0.21 | 0.00 | 1 | 1009.7 |
| 20260903115537 | 50 | 360 | 0.0 | 0.0 | 0.00 | 0.21 | 0.00 | 1 | 1009.7 |
| 20260903115036 | 50 | 360 | 0.0 | 0.0 | 0.00 | 0.21 | 0.00 | 1 | 1009.7 |
| 20260903114535 | 50 | 360 | 0.0 | 0.0 | 0.00 | 0.21 | 0.00 | 1 | 1009.7 |
| 20260903114035 | 50 | 360 | 0.0 | 0.0 | 0.00 | 0.21 | 0.00 | 1 | 1009.5 |
| 20260903113532 | 50 | 360 | 0.0 | 0.0 | 0.00 | 0.21 | 0.00 | 1 | 1009.5 |
| 20260903113032 | 50 | 360 | 0.0 | 0.0 | 0.00 | 0.21 | 0.00 | 1 | 1009.5 |
| 20260903112529 | 50 | 360 | 0.0 | 0.0 | 0.00 | 0.21 | 0.00 | 1 | 1009.5 |
| 20260903112027 | 50 | 360 | 0.0 | 0.0 | 0.00 | 0.21 | 0.00 | 1 | 1009.6 |
| 20260903111526 | 51 | 360 | 0.0 | 0.0 | 0.00 | 0.21 | 0.00 | 1 | 1009.6 |
| 20260903111025 | 51 | 360 | 0.0 | 0.0 | 0.00 | 0.21 | 0.00 | 1 | 1009.5 |
| 20260903110523 | 51 | 360 | 0.0 | 0.0 | 0.00 | 0.21 | 0.00 | 1 | 1009.2 |
| 20260903110022 | 51 | 360 | 0.0 | 0.0 | 0.00 | 0.21 | 0.00 | 1 | 1009.2 |
| 20260903105520 | 51 | 360 | 0.0 | 0.0 | 0.00 | 0.21 | 0.00 | 1 | 1009.2 |
| 20260903105020 | 51 | 360 | 0.0 | 0.0 | 0.00 | 0.21 | 0.00 | 1 | 1009.3 |
| 20260903104524 | 51 | 360 | 0.0 | 0.0 | 0.00 | 0.21 | 0.00 | 1 | 1009.1 |
| 20260903104017 | 51 | 360 | 0.0 | 0.0 | 0.00 | 0.21 | 0.00 | 1 | 1009.1 |
| 20260903103516 | 51 | 360 | 0.0 | 0.0 | 0.00 | 0.21 | 0.00 | 1 | 1009.1 |
| 20260903103013 | 51 | 360 | 0.0 | 0.0 | 0.00 | 0.21 | 0.00 | 1 | 1009.1 |
| 20260903102512 | 51 | 360 | 0.0 | 0.0 | 0.00 | 0.21 | 0.00 | 1 | 1009.0 |
| 20260903102012 | 51 | 360 | 0.0 | 0.0 | 0.00 | 0.21 | 0.00 | 1 | 1009.0 |
| 20260903101513 | 51 | 360 | 0.0 | 0.0 | 0.00 | 0.21 | 0.00 | 1 | 1009.1 |
| 20260903101007 | 51 | 360 | 0.0 | 0.0 | 0.00 | 0.21 | 0.00 | 1 | 1009.1 |
| 20260903100506 | 51 | 360 | 0.0 | 0.0 | 0.00 | 0.21 | 0.00 | 1 | 1009.0 |
| 20260903100016 | 51 | 360 | 0.0 | 0.0 | 0.00 | 0.21 | 0.00 | 1 | 1008.9 |
| 20260903095504 | 51 | 360 | 0.0 | 0.0 | 0.00 | 0.21 | 0.00 | 1 | 1009.0 |
| 20260903095003 | 51 | 360 | 0.0 | 0.0 | 0.00 | 0.21 | 0.00 | 1 | 1009.0 |
| 20260903094610 | 51 | 360 | 0.0 | 0.0 | 0.00 | 0.21 | 0.00 | 1 | 1009.0 |
| 20260903094059 | 51 | 360 | 0.0 | 0.0 | 0.00 | 0.21 | 0.00 | 1 | 1008.9 |
| 20260903093559 | 51 | 360 | 0.0 | 0.0 | 0.00 | 0.21 | 0.00 | 1 | 1009.0 |
| 20260903093056 | 51 | 360 | 0.0 | 0.0 | 0.00 | 0.21 | 0.00 | 1 | 1009.0 |
| 20260903092555 | 51 | 360 | 0.0 | 0.0 | 0.00 | 0.21 | 0.00 | 1 | 1009.0 |
| 20260903092054 | 51 | 360 | 0.0 | 0.0 | 0.00 | 0.21 | 0.00 | 1 | 1008.9 |
| 20260903091557 | 51 | 360 | 0.0 | 0.0 | 0.00 | 0.21 | 0.00 | 1 | 1009.0 |
| 20260903091053 | 51 | 360 | 0.0 | 0.0 | 0.00 | 0.21 | 0.00 | 1 | 1008.9 |
| 20260903090549 | 51 | 360 | 0.0 | 0.0 | 0.00 | 0.21 | 0.00 | 1 | 1008.9 |
| 20260903090047 | 51 | 360 | 0.0 | 0.0 | 0.00 | 0.21 | 0.00 | 1 | 1008.9 |
| 20260903085545 | 51 | 360 | 0.0 | 0.0 | 0.00 | 0.21 | 0.00 | 1 | 1008.9 |
| 20260903085048 | 51 | 360 | 0.0 | 0.0 | 0.00 | 0.21 | 0.00 | 1 | 1008.9 |
| 20260903084543 | 51 | 360 | 0.0 | 0.0 | 0.00 | 0.21 | 0.00 | 1 | 1008.9 |
| 20260903084042 | 51 | 360 | 0.0 | 0.0 | 0.00 | 0.21 | 0.00 | 1 | 1008.8 |
| 20260903083540 | 50 | 360 | 0.0 | 0.0 | 0.00 | 0.21 | 0.00 | 1 | 1008.7 |
| 20260903083038 | 50 | 360 | 0.0 | 0.0 | 0.00 | 0.21 | 0.00 | 1 | 1008.7 |
| 20260903082539 | 50 | 360 | 0.0 | 0.0 | 0.00 | 0.21 | 0.00 | 1 | 1008.7 |
| 20260903082036 | 50 | 360 | 0.0 | 0.0 | 0.00 | 0.21 | 0.00 | 1 | 1008.6 |
| 20260903081534 | 50 | 360 | 0.0 | 0.0 | 0.00 | 0.21 | 0.00 | 1 | 1008.8 |
| 20260903081036 | 50 | 360 | 0.0 | 0.0 | 0.00 | 0.21 | 0.00 | 1 | 1008.8 |
| 20260903080533 | 50 | 360 | 0.0 | 0.0 | 0.00 | 0.21 | 0.00 | 1 | 1008.6 |
| 20260903080030 | 50 | 360 | 0.0 | 0.0 | 0.00 | 0.21 | 0.00 | 1 | 1008.7 |
| 20260903075529 | 50 | 360 | 0.0 | 0.0 | 0.00 | 0.21 | 0.00 | 1 | 1008.6 |
| 20260903075030 | 50 | 360 | 0.0 | 0.0 | 0.00 | 0.21 | 0.00 | 1 | 1008.5 |
| 20260903074525 | 51 | 360 | 0.0 | 0.0 | 0.00 | 0.21 | 0.00 | 1 | 1008.5 |
| 20260903074024 | 51 | 360 | 0.0 | 0.0 | 0.00 | 0.21 | 0.00 | 1 | 1008.5 |
| 20260903073522 | 51 | 360 | 0.0 | 0.0 | 0.00 | 0.21 | 0.00 | 1 | 1008.4 |
| 20260903073047 | 51 | 360 | 0.0 | 0.0 | 0.00 | 0.21 | 0.00 | 1 | 1008.2 |
| 20260903072509 | 52 | 360 | 0.0 | 0.0 | 0.00 | 0.21 | 0.00 | 1 | 1008.1 |
| 20260903072008 | 52 | 360 | 0.0 | 0.0 | 0.00 | 0.21 | 0.00 | 1 | 1008.1 |
| 20260903071507 | 52 | 360 | 0.0 | 0.0 | 0.00 | 0.21 | 0.00 | 1 | 1008.1 |
| 20260903071004 | 52 | 360 | 0.0 | 0.0 | 0.00 | 0.21 | 0.00 | 1 | 1008.1 |
| 20260903070503 | 52 | 360 | 0.0 | 0.0 | 0.00 | 0.21 | 0.00 | 1 | 1008.0 |
| 20260903070003 | 52 | 360 | 0.0 | 0.0 | 0.00 | 0.21 | 0.21 | 1 | 1008.1 |
| 20260903065600 | 52 | 360 | 0.0 | 0.0 | 0.00 | 0.21 | 0.21 | 1 | 1008.0 |
| 20260903065059 | 52 | 360 | 0.0 | 0.0 | 0.00 | 0.21 | 0.21 | 1 | 1008.0 |
| 20260903064601 | 53 | 360 | 0.0 | 0.0 | 0.00 | 0.21 | 0.21 | 1 | 1008.0 |
| 20260903064056 | 53 | 360 | 0.0 | 0.0 | 0.00 | 0.21 | 0.21 | 1 | 1008.0 |
| 20260903063556 | 53 | 360 | 0.0 | 0.0 | 0.00 | 0.21 | 0.21 | 1 | 1008.0 |
| 20260903063113 | 53 | 360 | 0.0 | 0.0 | 0.00 | 0.21 | 0.21 | 1 | 1008.0 |
| 20260903062553 | 53 | 360 | 0.0 | 0.0 | 0.00 | 0.21 | 0.21 | 1 | 1007.9 |
| 20260903062049 | 53 | 182 | 0.0 | 0.0 | 0.00 | 0.21 | 0.21 | 1 | 1008.0 |
| 20260903061549 | 53 | 182 | 0.0 | 0.0 | 0.00 | 0.21 | 0.21 | 1 | 1008.0 |
| 20260903061051 | 53 | 182 | 0.0 | 0.0 | 0.00 | 0.21 | 0.21 | 1 | 1008.0 |
| 20260903060545 | 53 | 200 | 0.0 | 0.0 | 0.00 | 0.21 | 0.21 | 1 | 1008.1 |
| 20260903060044 | 54 | 231 | 0.0 | 0.0 | 0.00 | 0.21 | 0.21 | 1 | 1007.9 |
| 20260903055544 | 54 | 235 | 0.0 | 0.0 | 0.00 | 0.21 | 0.21 | 1 | 1008.0 |
| 20260903055044 | 54 | 235 | 0.0 | 0.0 | 0.00 | 0.21 | 0.21 | 1 | 1008.0 |
| 20260903054540 | 54 | 274 | 0.0 | 0.0 | 0.00 | 0.21 | 0.21 | 1 | 1007.7 |
| 20260903054038 | 54 | 234 | 0.0 | 0.0 | 0.00 | 0.21 | 0.21 | 1 | 1007.8 |
| 20260903053537 | 54 | 228 | 0.0 | 0.0 | 0.00 | 0.21 | 0.21 | 1 | 1007.9 |
| 20260903053036 | 54 | 228 | 0.0 | 0.0 | 0.00 | 0.21 | 0.21 | 1 | 1007.9 |
| 20260903052534 | 54 | 228 | 0.0 | 0.0 | 0.00 | 0.21 | 0.21 | 1 | 1007.8 |
| 20260903052033 | 54 | 226 | 0.0 | 0.0 | 0.00 | 0.21 | 0.21 | 1 | 1007.9 |
| 20260903051532 | 54 | 226 | 0.0 | 0.0 | 0.00 | 0.21 | 0.21 | 1 | 1008.0 |
| 20260903051029 | 55 | 226 | 0.0 | 0.0 | 0.00 | 0.21 | 0.21 | 1 | 1007.9 |
| 20260903050528 | 55 | 226 | 0.0 | 0.0 | 0.00 | 0.21 | 0.21 | 1 | 1007.8 |
| 20260903050027 | 55 | 236 | 0.0 | 0.0 | 0.00 | 0.21 | 0.21 | 1 | 1007.8 |
| 20260903045528 | 55 | 236 | 0.0 | 0.0 | 0.00 | 0.21 | 0.21 | 1 | 1007.7 |
| 20260903045023 | 55 | 236 | 0.0 | 0.0 | 0.00 | 0.21 | 0.21 | 1 | 1007.8 |
| 20260903044523 | 55 | 236 | 0.0 | 0.0 | 0.01 | 0.21 | 0.21 | 1 | 1007.7 |
| 20260903044023 | 55 | 236 | 0.0 | 0.0 | 0.01 | 0.21 | 0.21 | 1 | 1007.8 |
| 20260903043519 | 55 | 236 | 0.0 | 0.0 | 0.01 | 0.21 | 0.21 | 1 | 1007.7 |
| 20260903043017 | 55 | 244 | 0.0 | 0.0 | 0.01 | 0.21 | 0.21 | 1 | 1007.7 |
| 20260903042516 | 55 | 227 | 0.0 | 0.0 | 0.01 | 0.21 | 0.21 | 1 | 1007.6 |
| 20260903042015 | 55 | 250 | 0.0 | 0.0 | 0.01 | 0.21 | 0.21 | 1 | 1007.5 |
| 20260903041513 | 55 | 217 | 0.0 | 0.0 | 0.01 | 0.21 | 0.21 | 1 | 1007.5 |
| 20260903041011 | 55 | 226 | 0.0 | 0.0 | 0.01 | 0.21 | 0.21 | 1 | 1007.4 |
| 20260903040510 | 55 | 237 | 0.0 | 0.0 | 0.01 | 0.21 | 0.21 | 1 | 1007.2 |
| 20260903040009 | 55 | 237 | 0.0 | 0.0 | 0.01 | 0.21 | 0.21 | 1 | 1007.2 |
| 20260903035506 | 56 | 284 | 0.0 | 0.0 | 0.01 | 0.21 | 0.21 | 1 | 1007.2 |
| 20260903035005 | 56 | 306 | 0.0 | 0.0 | 0.00 | 0.20 | 0.20 | 1 | 1007.2 |
| 20260903034512 | 56 | 290 | 0.0 | 0.0 | 0.00 | 0.20 | 0.20 | 1 | 1007.1 |
| 20260903034002 | 56 | 285 | 0.0 | 0.0 | 0.01 | 0.20 | 0.20 | 1 | 1006.9 |
| 20260903033500 | 56 | 280 | 0.0 | 0.0 | 0.03 | 0.20 | 0.20 | 1 | 1007.1 |
| 20260903033102 | 56 | 280 | 0.0 | 0.0 | 0.04 | 0.20 | 0.20 | 1 | 1007.0 |
| 20260903032558 | 56 | 293 | 0.0 | 0.0 | 0.04 | 0.20 | 0.20 | 1 | 1006.9 |
| 20260903032057 | 56 | 293 | 0.0 | 0.0 | 0.05 | 0.20 | 0.20 | 1 | 1006.8 |
| 20260903031555 | 56 | 280 | 0.0 | 0.0 | 0.05 | 0.20 | 0.20 | 1 | 1006.7 |
| 20260903031056 | 56 | 281 | 0.0 | 0.0 | 0.06 | 0.20 | 0.20 | 1 | 1006.7 |
| 20260903030554 | 57 | 305 | 0.0 | 0.0 | 0.06 | 0.20 | 0.20 | 1 | 1006.7 |
| 20260903030104 | 57 | 289 | 0.0 | 0.0 | 0.06 | 0.20 | 0.20 | 1 | 1006.6 |
| 20260903025549 | 57 | 281 | 0.0 | 0.0 | 0.06 | 0.20 | 0.20 | 1 | 1006.6 |
| 20260903025049 | 58 | 281 | 0.0 | 0.0 | 0.06 | 0.20 | 0.20 | 1 | 1006.7 |
| 20260903024546 | 58 | 262 | 0.0 | 0.0 | 0.06 | 0.20 | 0.20 | 1 | 1006.6 |
| 20260903024044 | 58 | 263 | 0.0 | 0.0 | 0.05 | 0.19 | 0.19 | 1 | 1006.5 |
| 20260903023545 | 58 | 281 | 0.0 | 0.0 | 0.03 | 0.17 | 0.17 | 1 | 1006.6 |
| 20260903023043 | 58 | 281 | 0.0 | 0.0 | 0.02 | 0.16 | 0.16 | 1 | 1006.5 |
| 20260903022541 | 58 | 292 | 0.0 | 0.0 | 0.02 | 0.16 | 0.16 | 1 | 1006.5 |
| 20260903022043 | 59 | 286 | 0.0 | 0.0 | 0.02 | 0.15 | 0.15 | 1 | 1006.6 |
| 20260903021538 | 59 | 287 | 0.0 | 0.0 | 0.02 | 0.15 | 0.15 | 1 | 1006.5 |
| 20260903021037 | 59 | 25 | 0.0 | 0.0 | 0.01 | 0.14 | 0.14 | 1 | 1006.3 |
| 20260903020534 | 59 | 25 | 0.0 | 0.0 | 0.01 | 0.14 | 0.14 | 1 | 1005.9 |
| 20260903020043 | 59 | 25 | 0.0 | 0.0 | 0.01 | 0.14 | 0.14 | 1 | 1005.9 |
| 20260903015532 | 59 | 25 | 0.0 | 0.0 | 0.01 | 0.14 | 0.14 | 1 | 1005.9 |
| 20260903015029 | 59 | 25 | 0.0 | 0.0 | 0.01 | 0.14 | 0.14 | 1 | 1005.9 |
| 20260903014528 | 60 | 25 | 0.0 | 0.0 | 0.01 | 0.14 | 0.14 | 1 | 1005.9 |
| 20260903014029 | 60 | 25 | 0.0 | 0.0 | 0.02 | 0.14 | 0.14 | 1 | 1006.0 |
| 20260903013526 | 60 | 25 | 0.0 | 0.0 | 0.02 | 0.14 | 0.14 | 1 | 1006.0 |
| 20260903013025 | 60 | 25 | 0.0 | 0.0 | 0.02 | 0.14 | 0.14 | 1 | 1006.1 |
| 20260903012523 | 60 | 25 | 0.0 | 0.0 | 0.02 | 0.14 | 0.14 | 1 | 1005.9 |
| 20260903012021 | 60 | 25 | 0.0 | 0.0 | 0.01 | 0.13 | 0.13 | 1 | 1006.1 |
| 20260903011520 | 60 | 25 | 0.0 | 0.0 | 0.01 | 0.13 | 0.13 | 1 | 1005.8 |
| 20260903011019 | 60 | 25 | 0.0 | 0.0 | 0.01 | 0.13 | 0.13 | 2 | 1006.0 |
| 20260903010517 | 60 | 25 | 0.0 | 0.0 | 0.01 | 0.13 | 0.13 | 3 | 1006.1 |
| 20260903010016 | 60 | 25 | 0.0 | 0.0 | 0.01 | 0.13 | 0.13 | 3 | 1006.0 |
| 20260903005514 | 60 | 25 | 0.0 | 0.0 | 0.01 | 0.13 | 0.13 | 2 | 1006.2 |
| 20260903005012 | 60 | 25 | 0.0 | 0.0 | 0.01 | 0.13 | 0.13 | 2 | 1006.0 |
| 20260903004511 | 60 | 25 | 0.0 | 0.0 | 0.01 | 0.13 | 0.13 | 3 | 1006.3 |
| 20260903004010 | 60 | 25 | 0.0 | 0.0 | 0.01 | 0.12 | 0.12 | 4 | 1006.2 |
| 20260903003509 | 60 | 25 | 0.0 | 0.0 | 0.01 | 0.12 | 0.12 | 3 | 1006.4 |
| 20260903003008 | 60 | 25 | 0.0 | 0.0 | 0.01 | 0.12 | 0.12 | 3 | 1006.2 |
| 20260903002507 | 60 | 25 | 0.0 | 0.0 | 0.01 | 0.12 | 0.12 | 4 | 1006.2 |
| 20260903002003 | 61 | 25 | 0.0 | 0.0 | 0.01 | 0.12 | 0.12 | 4 | 1006.2 |
| 20260903001503 | 61 | 25 | 0.0 | 0.0 | 0.01 | 0.12 | 0.12 | 7 | 1006.1 |
| 20260903001003 | 61 | 25 | 0.0 | 0.0 | 0.01 | 0.12 | 0.12 | 9 | 1006.1 |
| 20260903000600 | 61 | 25 | 0.0 | 0.0 | 0.01 | 0.12 | 0.12 | 10 | 1006.1 |
| 20260903000059 | 61 | 25 | 0.0 | 0.0 | 0.01 | 0.12 | 0.12 | 10 | 1006.1 |
| 20260902235557 | 61 | 25 | 0.0 | 0.0 | 0.01 | 0.12 | 0.12 | 7 | 1006.1 |
| 20260902235058 | 61 | 25 | 0.0 | 0.0 | 0.01 | 0.12 | 0.12 | 7 | 1005.9 |
| 20260902234554 | 61 | 25 | 0.0 | 0.0 | 0.01 | 0.12 | 0.12 | 6 | 1006.0 |
| 20260902234052 | 61 | 25 | 0.0 | 0.0 | 0.00 | 0.11 | 0.11 | 8 | 1006.1 |
| 20260902233551 | 61 | 25 | 0.0 | 0.0 | 0.00 | 0.11 | 0.11 | 7 | 1006.3 |
| 20260902233100 | 61 | 25 | 0.0 | 0.0 | 0.00 | 0.11 | 0.11 | 8 | 1006.3 |
| 20260902232548 | 61 | 25 | 0.0 | 0.0 | 0.00 | 0.11 | 0.11 | 8 | 1006.2 |
| 20260902232048 | 61 | 61 | 0.0 | 0.0 | 0.01 | 0.11 | 0.11 | 7 | 1006.3 |
| 20260902231547 | 61 | 61 | 0.0 | 0.0 | 0.01 | 0.11 | 0.11 | 8 | 1006.4 |
| 20260902231046 | 61 | 61 | 0.0 | 0.0 | 0.01 | 0.11 | 0.11 | 7 | 1006.5 |
| 20260902230542 | 61 | 61 | 0.0 | 0.0 | 0.01 | 0.11 | 0.11 | 7 | 1006.4 |
| 20260902230042 | 61 | 61 | 0.0 | 0.0 | 0.01 | 0.11 | 0.11 | 8 | 1006.2 |
| 20260902225541 | 61 | 61 | 0.0 | 0.0 | 0.01 | 0.11 | 0.11 | 8 | 1006.3 |
| 20260902225041 | 61 | 61 | 0.0 | 0.0 | 0.02 | 0.11 | 0.11 | 14 | 1006.3 |
| 20260902224549 | 61 | 61 | 0.0 | 0.0 | 0.02 | 0.11 | 0.11 | 15 | 1006.2 |
| 20260902224038 | 61 | 61 | 0.0 | 0.0 | 0.02 | 0.11 | 0.11 | 14 | 1006.2 |
| 20260902223538 | 61 | 61 | 0.0 | 0.0 | 0.02 | 0.11 | 0.11 | 14 | 1006.2 |
| 20260902223053 | 61 | 61 | 0.0 | 0.0 | 0.03 | 0.11 | 0.11 | 14 | 1006.3 |
| 20260902222537 | 61 | 61 | 0.0 | 0.0 | 0.03 | 0.11 | 0.11 | 16 | 1006.0 |
| 20260902222037 | 61 | 61 | 0.0 | 0.0 | 0.02 | 0.10 | 0.10 | 17 | 1006.1 |
| 20260902221539 | 61 | 61 | 0.0 | 0.0 | 0.02 | 0.10 | 0.10 | 18 | 1006.1 |
| 20260902221036 | 61 | 61 | 0.0 | 0.0 | 0.03 | 0.10 | 0.10 | 24 | 1006.1 |
| 20260902220534 | 61 | 61 | 0.0 | 0.0 | 0.03 | 0.10 | 0.10 | 28 | 1006.0 |
| 20260902220036 | 61 | 61 | 0.0 | 0.0 | 0.03 | 0.10 | 0.10 | 28 | 1005.9 |
| 20260902215532 | 61 | 61 | 0.0 | 0.0 | 0.04 | 0.10 | 0.10 | 26 | 1005.7 |
| 20260902215032 | 61 | 61 | 0.0 | 0.0 | 0.03 | 0.09 | 0.09 | 28 | 1005.6 |